Location: Newark
(43.4306°N, 0.3089°E)
Time: 18:58:48
(UTC+00:00)

S-56A Canister/Altair - Pass Details

Date: 25 August 2019
Orbit: 633 x 2499 km, 38.9° (Epoch: 14 October)

Event Time Altitude Azimuth Distance (km) Brightness Sun altitude
Rises 01:09:03 0° 270° (W) 2,938 - -33.5°
Reaches altitude 10° 01:11:35 10° 255° (WSW) 2,092 - -33.3°
Maximum altitude 01:15:19 23° 202° (SSW) 1,536 - -33.1°
Drops below altitude 10° 01:19:49 10° 150° (SSE) 2,564 - -32.8°
Sets 01:23:19 0° 138° (SE) 3,793 - -32.5°
